This is the latest recevied weather packets stored in our database for station/object DO1TOB-60. If no packets are shown the sender has not sent any weather packets the latest 1 day(s).
| Time | Temp. | Humidity | Pressure | Rain* | Wind** | Luminosity | Snow |
|---|---|---|---|---|---|---|---|
| 1777993318 | 14.44° C | 92% | 1008.4 hPa | 0 mm | 3.13 m/s, 312° | - | - |
| 1777993257 | 14.44° C | 92% | 1008.4 hPa | 0 mm | 2.68 m/s, 324° | - | - |
| 1777993197 | 14.44° C | 92% | 1008.4 hPa | 0 mm | 2.68 m/s, 313° | - | - |
| 1777993138 | 14.44° C | 92% | 1008.4 hPa | 0 mm | 1.34 m/s, 315° | - | - |
| 1777993077 | 14.44° C | 92% | 1008.4 hPa | 0 mm | 1.79 m/s, 331° | - | - |
| 1777993017 | 14.44° C | 92% | 1008.4 hPa | 0 mm | 2.24 m/s, 331° | - | - |
| 1777992957 | 14.44° C | 92% | 1008.4 hPa | 0 mm | 2.24 m/s, 338° | - | - |
| 1777992898 | 14.44° C | 92% | 1008.4 hPa | 0 mm | 1.34 m/s, 335° | - | - |
| 1777992841 | 14.44° C | 92% | 1008.4 hPa | 0 mm | 0.89 m/s, 339° | - | - |
| 1777992768 | 14.44° C | 91% | 1008.4 hPa | 0 mm | 0.89 m/s, 340° | - | - |
| 1777992707 | 14.44° C | 91% | 1008.4 hPa | 0 mm | 1.34 m/s, 333° | - | - |
| 1777992647 | 14.44° C | 91% | 1008.4 hPa | 0 mm | 1.79 m/s, 337° | - | - |
| 1777992587 | 14.44° C | 91% | 1008.4 hPa | 0 mm | 1.79 m/s, 332° | - | - |
| 1777992531 | 14.44° C | 92% | 1008.4 hPa | 0 mm | 0.89 m/s, 329° | - | - |
| 1777992458 | 14.44° C | 92% | 1008.4 hPa | 0 mm | 0.89 m/s, 333° | - | - |
| 1777992337 | 14.44° C | 92% | 1008.4 hPa | 0 mm | 1.79 m/s, 332° | - | - |
| 1777992278 | 14.44° C | 92% | 1008.4 hPa | 0 mm | 0.89 m/s, 329° | - | - |
| 1777992157 | 14.44° C | 92% | 1008.5 hPa | 0 mm | 0.89 m/s, 332° | - | - |
| 1777992097 | 14.44° C | 92% | 1008.5 hPa | 0 mm | 1.34 m/s, 333° | - | - |
| 1777991967 | 14.44° C | 92% | 1008.4 hPa | 0 mm | 0.45 m/s, 340° | - | - |
| 1777991847 | 14.44° C | 92% | 1008.5 hPa | 0 mm | 1.79 m/s, 335° | - | - |
| 1777991727 | 14.44° C | 92% | 1008.4 hPa | 0 mm | 1.34 m/s, 30° | - | - |
| 1777991667 | 14.44° C | 92% | 1008.5 hPa | 0 mm | 2.68 m/s, 335° | - | - |
| 1777991611 | 14.44° C | 92% | 1008.4 hPa | 0 mm | 2.24 m/s, 355° | - | - |
| 1777991538 | 14.44° C | 92% | 1008.4 hPa | 0 mm | 0.89 m/s, 355° | - | - |
* Rain latest hour (hover to see other rain measurements)
** Current wind speed in m/s (hover to see current wind gust speed)